Regional Weather Roundup
Issued by NWS

Home | Current Version | Previous Version | Text Only | Print | Product List | Glossary On
Versions: 1 2 3 4 5 6 7 8 9 10 11 12 13 14 15 16 17 18 19 20 21 22 23 24 25 26 27 28 29 30 31 32 33 34 35 36 37 38 39 40 41 42 43 44 45 46 47 48 49 50
956
ASUS43 KDTX 272210
RWRMI
MICHIGAN HOURLY REGIONAL WEATHER ROUNDUP
NATIONAL WEATHER SERVICE DETROIT/PONTIAC MI
ISSUED BY NATIONAL WEATHER SERVICE GRAND RAPIDS MI
600 PM EDT SAT MAY 27 2017

NOTE: "FAIR" INDICATES FEW OR NO CLOUDS BELOW 12,000 FEET WITH NO
SIGNIFICANT WEATHER AND/OR OBSTRUCTION TO VISIBILITY.

MIZ047>049-052>055-059>063-066>070-074>076-081>083-272300-
SOUTHEAST LOWER MICHIGAN

CITY           SKY/WX    TMP DP  RH WIND       PRES   REMARKS
ADRIAN         CLOUDY    70  54  56 SE5       29.91S
ALMA           PTSUNNY   75  52  43 SW7       29.89F
ANN ARBOR      CLOUDY    71  58  63 SE7       29.90S
BAD AXE        CLOUDY    72  57  60 N7        29.91S
DETROIT CITY   SUNNY     73  55  53 SE7       29.90S
DETROIT        PTSUNNY   71  56  58 S9        29.91S
FLINT          CLOUDY    74  55  51 CALM      29.90R
GROSSE ILE     SUNNY     66  57  73 S6        29.90S
HILLSDALE      CLOUDY    70  55  60 NE3       29.90F HAZE
HOWELL         CLOUDY    73  53  49 CALM      29.90S

CITY           SKY/WX    TMP DP  RH WIND       PRES   REMARKS
JACKSON        CLOUDY    71  57  61 SE6       29.90S
LANSING        CLOUDY    74  53  48 CALM      29.90S
MASON          CLOUDY    72  57  59 SE5       29.90F
MONROE         SUNNY     70  56  60 S5        29.90S
MT. CLEMENS    MOSUNNY   72  58  62 SE5       29.89S
PONTIAC        PTSUNNY   72  52  49 CALM      29.89S
PORT HOPE        N/A     58  53  84 E8        29.91S
PORT HURON     SUNNY     72  52  49 NE7       29.90S
TRI CITIES     PTSUNNY   75  54  47 VRB3      29.89S
YPSILANTI      CLOUDY    73  57  57 S5        29.91S
$$
MIZ043>046-050>051-056>058-064>065-071>073-077>080-272300-
SOUTHWEST LOWER MICHIGAN

CITY           SKY/WX    TMP DP  RH WIND       PRES   REMARKS
BATTLE CREEK   CLOUDY    73  58  59 CALM      29.89F
BENTON HARBOR  MOSUNNY   69  53  56 VRB6      29.86F
BIG RAPIDS     PTSUNNY   74  52  46 S5        29.87F
COLDWATER      CLOUDY    70  60  71 E3        29.89F
HOLLAND        SUNNY     72  54  53 N5        29.87F
GRAND RAPIDS   CLOUDY    74  58  57 SE8       29.87F
KALAMAZOO      MOSUNNY   75  56  51 CALM      29.88F
MARSHALL       CLOUDY    72  59  63 CALM      29.89F
MOUNT PLEASANT MOSUNNY   75  53  45 S3        29.87F
MUSKEGON       MOSUNNY   73  49  42 W5        29.86F
STURGIS        CLOUDY    72  59  64 NE3       29.87F
$$
MIZ016>042-272300-
NORTHERN LOWER MICHIGAN

CITY           SKY/WX    TMP DP  RH WIND       PRES   REMARKS
ALPENA         SUNNY     70  53  54 E13       29.89S
BEAVER ISLAND  MOSUNNY   69  54  58 W9        29.88R
BELLAIRE       SUNNY     72  53  50 NW7       29.88S
CADILLAC       CLOUDY    74  54  49 W10       29.88S
CHARLEVOIX     MOSUNNY   63  53  69 W5        29.91F
GAYLORD        CLOUDY    73  52  47 NW3       29.88S
HOUGHTON LAKE  SUNNY     74  52  46 SW7       29.89S
MANISTEE       MOSUNNY   68  53  58 W9        29.87F
OSCODA         SUNNY     67  51  56 SE8       29.89F
PELLSTON       MOSUNNY   75  49  39 N6        29.87F
TRAVERSE CITY  PTSUNNY   70  53  54 N8        29.85F
LUDINGTON      PTSUNNY   65  53  64 SW5       29.87F
$$
MIZ007>008-015-272300-
EASTERN UPPER MICHIGAN

CITY           SKY/WX    TMP DP  RH WIND       PRES   REMARKS
KINROSS        SUNNY     73  51  46 S10G18    29.87S
MACKINAC ISLAN SUNNY     69  47  45 SE5       29.88S
NEWBERRY       SUNNY     70  53  53 SW12G17   29.86S
S. S. MARIE    MOSUNNY   75  48  38 S15       29.84F
$$
MIZ004>006-011>014-085-272300-
CENTRAL UPPER MICHIGAN

CITY           SKY/WX    TMP DP  RH WIND       PRES   REMARKS
MANISTIQUE     CLOUDY    56  48  74 S7        29.86S
ESCANABA       CLOUDY    66  52  60 S10       29.83F
SAWYER-GWINN   MOSUNNY   72  55  56 S15G22    29.81F
$$
MIZ001>003-009>011-084-272300-
WESTERN UPPER MICHIGAN

CITY           SKY/WX    TMP DP  RH WIND       PRES   REMARKS
IRON MOUNTAIN  MOSUNNY   79  41  25 SW10      29.79F
HOUGHTON       MOSUNNY   69  42  37 W13       29.82S
COPPER HARBOR    N/A     56  45  66 N8        29.81S
IRONWOOD       CLOUDY    69  43  38 NW9       29.84F
$$

ABBREVIATIONS USED IN REMARKS
   TC - TEMPERATURE IN CELSIUS
  WCI - WIND CHILL INDEX
   HX - HEAT INDEX
  VSB - VISIBILITY





USA.gov is the U.S. government's official web portal to all federal, state and local government web resources and services.